Location: Pontbriand
(46.1542°N, 71.2542°W)
Time: 16:20:43
(UTC+00:00)

Envisat - Pass Details

Date: 02 December 2021
Orbit: 764 x 766 km, 98.2° (Epoch: 16 January)

Event Time Altitude Azimuth Distance (km) Brightness Sun altitude
Rises 10:06:02 0° 11° (N) 3,244 6.3 -20.5°
Reaches altitude 10° 10:08:21 10° 10° (N) 2,314 5.5 -20.1°
Maximum altitude 10:13:26 72° 286° (WNW) 809 2.9 -19.2°
Drops below altitude 10° 10:18:28 10° 204° (SSW) 2,296 5.4 -18.4°
Sets 10:20:45 0° 202° (SSW) 3,217 6.1 -18.0°
